Wind_Speed
8 8 7 7 7 7 8 8 8 8 9 9 10 10 9 9 9 9 9 9 9 9 9 10 11 12 13 14 15 16 17 17 18 18 18 18 18 19 20 20 21 22 22 24 25 25 26 27 28 29 30 32 34 34 36 36 37 39 40 41 39 39 39 38 39 35 32 33 27 19 19 22 27 29 27 26 33 37 36 34 29 30 30 30 34 40 42 41
9 8 8 8 8 8 9 9 9 9 9 10 10 10 10 9 9 9 9 9 10 10 10 11 12 13 14 16 17 18 18 18 18 18 18 18 18 19 20 20 21 21 22 23 24 25 26 27 27 28 29 31 33 34 35 35 39 41 40 40 40 40 39 37 37 33 33 30 23 21 21 20 23 25 25 22 24 27 27 26 25 29 31 29 28 36 44 43
10 9 9 8 9 9 9 9 9 10 10 11 11 11 10 10 10 10 10 11 11 11 12 13 14 15 16 17 18 19 18 18 18 18 18 18 18 19 19 20 20 21 22 23 24 25 26 26 26 27 27 29 31 32 33 34 37 40 39 38 40 39 37 37 35 32 35 30 22 22 23 24 23 21 29 30 27 29 24 17 18 22 25 24 24 33 43 43
11 10 10 10 10 10 10 10 11 11 11 11 12 11 11 11 11 11 12 12 13 13 14 15 15 16 17 18 19 19 18 17 17 17 17 17 18 18 19 20 21 22 23 24 25 25 25 25 25 25 25 25 27 30 32 32 33 36 36 37 37 36 37 34 23 21 30 32 29 27 28 32 25 15 23 32 32 29 23 18 18 19 18 15 18 31 41 45
11 11 11 11 11 11 11 11 11 11 11 12 12 12 12 12 12 13 13 14 14 15 15 16 16 17 18 18 19 18 18 17 17 17 16 17 18 18 19 20 21 22 23 24 24 25 24 23 22 21 21 21 22 25 28 25 26 35 36 35 34 33 36 31 22 24 29 30 34 34 33 34 29 21 20 24 27 25 21 17 17 18 16 12 18 31 38 45
11 11 11 11 11 12 12 11 11 12 12 12 12 13 13 13 13 14 14 15 15 15 16 16 16 17 18 18 18 18 18 18 16 16 16 17 17 18 19 20 22 22 23 24 24 24 22 20 18 18 18 17 18 18 18 19 24 33 33 30 29 25 29 30 33 41 38 34 40 41 38 39 39 37 34 34 37 37 31 24 23 22 17 13 21 32 36 44
11 11 11 11 12 12 12 12 12 12 12 13 13 13 14 14 14 15 15 15 15 15 16 16 16 17 17 18 18 18 18 17 16 15 16 16 17 18 20 21 22 22 23 23 22 21 19 18 17 18 17 13 16 14 13 21 25 27 28 26 21 18 26 33 38 42 41 40 44 41 39 43 42 41 44 44 43 44 41 35 33 29 27 25 29 38 44 49
11 11 11 12 12 12 12 12 13 13 13 13 13 13 14 14 15 15 15 15 15 15 16 16 16 17 17 18 18 17 17 16 15 15 15 16 17 18 20 20 21 22 23 22 21 19 17 17 17 18 16 11 15 13 15 22 20 21 23 18 13 18 26 29 31 35 38 41 43 40 39 41 41 40 43 45 43 46 45 40 39 35 34 35 39 42 47 53
11 11 11 12 12 12 12 13 13 13 13 13 13 13 14 14 14 15 15 15 15 15 16 16 17 17 17 17 17 16 16 16 15 16 16 16 17 18 20 20 21 21 22 21 19 17 16 17 17 16 16 14 16 15 18 19 11 17 21 14 15 21 24 23 23 27 31 33 37 40 40 40 40 41 42 43 44 44 44 41 39 39 36 37 45 48 46 52
12 11 11 12 12 12 12 13 13 14 14 14 14 14 14 15 15 15 15 15 15 16 16 17 17 17 17 17 17 16 15 15 15 16 16 17 18 18 19 19 20 20 20 20 17 16 16 17 17 16 15 16 17 16 19 17 13 18 21 18 20 22 22 21 20 22 25 26 29 33 34 33 33 35 38 38 37 38 39 40 40 42 44 45 51 52 48 52
13 13 12 12 12 12 13 13 13 14 14 15 15 15 15 15 15 16 16 16 16 16 17 17 17 17 17 16 16 15 15 15 15 16 16 17 18 18 19 19 19 20 19 18 16 15 17 17 17 15 15 16 17 18 18 16 16 18 19 19 18 18 19 19 18 18 20 20 23 26 26 27 26 27 31 29 26 33 38 39 42 45 49 50 49 49 49 50
14 14 14 13 13 13 13 14 14 14 15 15 16 16 16 16 16 16 16 16 16 17 17 17 17 17 16 15 15 15 15 15 15 16 16 16 18 18 18 19 18 19 18 17 15 15 16 17 16 15 15 16 15 17 18 16 14 15 15 16 15 15 14 15 16 16 15 15 18 21 20 19 19 19 22 20 22 32 38 38 41 44 45 44 42 43 46 46
15 15 15 14 14 14 15 15 15 16 16 16 16 16 17 16 16 17 16 17 16 17 17 16 16 16 15 14 14 14 15 15 15 16 16 16 18 18 18 18 17 18 17 16 15 15 16 17 16 15 15 15 15 15 17 16 12 11 12 12 10 8 11 13 13 10 10 12 14 15 13 7 11 17 16 17 24 33 36 34 37 37 38 39 40 43 47 49
15 15 15 15 15 15 15 16 16 17 17 17 18 18 18 18 18 17 17 17 17 17 17 16 16 15 14 14 13 13 14 15 15 15 16 16 17 17 17 17 16 16 15 14 14 14 16 16 14 14 14 14 15 14 14 13 10 8 8 8 7 7 9 13 14 10 8 12 14 12 8 3 6 11 13 15 20 27 30 30 32 34 37 41 43 48 51 50
16 16 16 16 16 16 16 17 17 18 18 18 19 19 19 19 19 18 18 17 17 17 17 17 17 14 13 13 12 13 14 14 15 16 16 16 17 17 16 16 15 15 13 13 13 13 14 15 14 14 14 13 14 14 13 9 7 7 8 8 8 6 8 13 15 13 6 8 13 10 9 2 1 8 11 13 15 21 26 26 28 30 33 37 39 44 45 44
18 17 17 17 17 17 17 17 18 18 19 19 19 20 20 20 19 19 18 17 16 16 17 18 16 15 14 11 10 12 13 14 15 16 16 16 17 17 16 15 14 13 12 12 12 12 13 14 13 13 13 13 12 12 12 8 6 8 9 9 8 7 8 10 13 13 7 10 11 9 12 7 7 8 8 15 17 21 24 23 26 28 29 33 35 37 38 38
19 18 18 18 18 18 17 18 18 19 19 20 20 20 20 20 20 19 19 18 16 16 17 17 14 14 15 13 12 12 13 14 15 16 16 16 17 17 16 15 14 13 11 11 11 11 12 13 13 13 12 12 10 11 12 9 7 9 9 9 10 10 9 9 10 13 11 11 12 11 15 13 9 9 9 13 16 19 19 19 23 24 27 30 32 34 36 37
20 19 19 19 18 18 18 18 19 19 20 20 20 20 21 20 20 20 19 17 15 16 17 17 15 14 13 14 15 14 14 14 15 16 16 16 17 17 16 14 13 13 10 10 11 11 11 11 12 12 11 12 11 11 15 12 10 12 10 10 12 12 10 9 11 11 9 10 12 11 15 16 16 14 9 9 15 17 15 17 20 22 24 26 28 30 33 36
20 20 20 20 19 19 19 19 19 20 20 21 21 21 21 21 19 19 19 18 15 15 15 15 15 14 12 12 14 14 14 15 15 16 16 16 16 16 16 14 13 12 11 9 10 11 11 10 11 10 9 12 13 13 16 15 13 15 14 14 14 13 13 12 10 13 14 14 16 13 14 17 20 18 12 12 18 18 16 17 19 21 22 24 27 29 31 37
21 21 20 20 20 19 19 20 20 20 20 21 21 21 21 21 19 18 17 17 16 14 14 14 14 14 14 13 14 14 14 15 15 16 16 15 16 16 16 15 13 11 10 10 11 12 13 12 11 10 8 11 13 14 15 15 14 14 14 15 14 13 14 14 13 15 17 17 17 16 16 18 20 20 18 20 22 20 20 20 21 22 23 25 29 31 33 36
22 21 21 20 20 20 20 20 20 20 21 21 22 22 22 21 20 18 15 15 15 14 14 14 14 14 14 14 14 15 14 14 14 16 16 15 15 15 15 15 13 12 11 10 11 13 13 12 10 8 8 10 13 14 15 14 14 13 13 13 14 14 14 15 17 15 14 16 17 15 16 17 18 18 17 21 22 21 23 24 24 23 23 23 26 29 32 32
23 22 22 21 21 21 21 21 21 20 21 21 22 22 22 21 20 19 17 15 14 15 15 14 14 14 14 15 15 15 15 14 13 14 15 15 15 15 14 14 12 12 12 11 11 12 12 11 10 9 9 10 12 14 14 13 13 14 13 12 12 14 14 14 15 14 13 15 16 15 16 15 15 17 16 17 18 19 23 23 22 22 22 24 25 27 30 31
25 23 22 22 21 21 21 22 21 21 21 21 21 22 22 21 20 19 18 16 14 14 15 14 14 14 13 13 14 14 14 15 14 13 14 15 15 14 14 13 12 11 11 12 12 12 12 11 10 11 11 12 14 14 14 12 13 13 13 12 12 12 13 11 11 13 15 16 16 17 18 16 15 16 16 17 18 20 22 21 21 23 23 25 25 26 28 30
25 24 23 22 21 21 21 22 22 21 21 21 21 21 21 20 20 19 18 17 14 13 14 14 14 15 14 13 13 13 12 14 15 14 14 15 14 14 14 13 11 10 10 13 12 11 12 11 10 12 12 13 15 15 15 13 13 12 13 14 13 12 14 13 11 14 18 19 17 17 19 19 18 16 15 18 19 21 23 21 20 22 23 25 27 28 29 30
26 25 24 23 22 21 21 22 22 22 21 21 21 21 21 20 19 18 18 18 15 13 13 14 14 15 14 13 13 13 12 12 14 14 13 14 15 13 13 12 11 10 11 12 12 10 13 13 12 13 13 13 15 17 16 13 13 13 13 14 13 12 14 14 13 15 16 17 16 14 17 18 17 16 17 18 15 18 20 19 19 20 21 24 26 27 27 29
27 25 25 24 22 21 21 21 22 22 21 21 20 20 20 19 18 18 18 18 17 14 12 14 15 15 14 14 13 13 13 11 13 14 13 13 14 14 13 12 11 11 11 11 11 11 12 13 13 14 14 13 15 15 13 12 14 15 13 13 13 13 14 14 14 15 13 14 14 13 13 13 13 13 15 16 15 20 20 19 21 22 22 24 24 25 26 28
27 26 25 24 23 22 21 21 21 22 22 21 20 20 20 19 19 18 17 17 18 17 14 13 15 15 14 14 14 14 13 12 12 13 13 14 14 14 14 12 11 11 11 10 10 11 11 11 12 13 14 15 15 13 11 14 16 17 14 12 13 13 14 15 15 15 13 13 14 13 10 11 12 11 12 14 17 21 20 18 20 22 23 25 25 25 27 29
27 26 25 24 23 23 21 21 21 22 22 21 20 20 20 20 19 18 18 17 16 17 17 15 15 16 15 15 15 16 15 15 14 12 12 14 14 14 14 13 12 11 10 8 9 10 11 12 12 13 14 16 16 14 15 16 16 17 16 14 14 13 13 16 16 15 14 12 13 12 8 10 12 10 11 15 16 19 21 20 20 20 21 23 23 24 26 27
27 26 25 24 23 23 22 21 21 21 22 22 21 20 20 20 20 19 18 17 15 16 17 17 16 16 16 15 15 16 17 17 16 14 13 13 14 14 14 13 12 11 10 8 8 10 11 11 12 13 14 16 17 16 16 16 16 16 16 15 16 15 14 15 15 15 14 12 11 10 9 11 13 12 12 15 16 18 20 19 19 20 21 22 23 25 26 26
27 26 25 23 23 22 22 22 21 21 21 21 21 21 21 21 21 20 18 18 17 15 16 16 16 16 16 16 14 14 17 18 17 16 15 14 13 13 13 13 12 11 10 9 9 11 11 11 11 12 13 14 16 18 18 17 17 16 15 15 16 16 15 13 14 13 12 12 12 10 10 9 11 14 13 15 18 18 19 20 22 23 23 25 26 27 28 28
27 25 24 23 23 22 22 22 22 22 22 21 21 21 22 21 20 20 19 17 15 15 16 14 14 16 16 17 16 15 15 16 17 17 16 15 14 12 12 13 12 10 10 10 11 12 13 12 12 11 13 14 15 17 18 18 17 15 16 16 16 16 15 14 13 12 11 12 11 9 9 8 12 16 14 15 18 17 19 23 23 22 24 26 27 29 28 28
26 25 24 23 23 23 22 22 22 22 22 22 22 22 22 22 20 20 19 18 15 15 17 17 15 16 16 17 17 16 16 15 15 16 16 16 15 13 12 12 12 10 8 9 12 13 13 13 13 13 15 15 15 15 16 17 16 16 17 17 18 18 16 14 13 11 11 11 10 10 9 9 15 17 17 18 19 18 20 22 21 22 24 23 25 30 31 27
26 25 24 23 23 22 23 22 22 23 22 22 22 22 22 21 20 19 19 20 18 16 17 19 18 17 17 18 17 15 16 16 15 15 15 15 16 15 13 11 11 10 9 9 12 13 13 13 14 15 15 15 14 16 16 16 17 18 19 19 20 20 17 13 12 11 12 11 10 10 8 12 18 19 19 20 18 18 20 20 20 21 23 23 24 29 33 28
24 25 24 24 24 23 23 23 23 23 23 22 22 22 23 22 21 20 19 19 17 17 19 20 19 19 18 17 18 16 16 16 15 16 15 15 15 15 14 11 10 11 10 10 11 13 12 13 14 14 14 14 15 17 17 17 17 18 19 19 21 21 19 16 14 15 15 14 13 11 11 17 22 21 20 19 18 19 19 20 20 20 22 25 25 27 32 30
23 24 24 24 25 24 23 23 23 23 23 22 22 22 23 21 20 20 19 19 19 19 22 21 19 20 19 18 18 16 15 15 15 16 16 14 15 15 14 13 11 11 11 11 11 10 11 14 15 13 15 16 15 15 15 15 16 14 15 17 18 19 19 17 17 18 18 18 16 14 16 22 23 21 20 20 22 22 19 20 22 21 22 25 25 26 29 28
24 23 24 25 26 26 25 24 23 23 23 22 22 22 22 22 22 21 20 23 23 21 21 23 20 18 19 20 20 17 15 14 16 17 16 15 15 14 13 14 13 12 12 12 11 11 12 15 15 13 15 16 14 13 13 13 13 12 13 15 14 15 17 18 19 20 20 20 18 15 19 22 22 21 19 20 22 21 18 20 23 24 24 25 26 26 26 26
28 26 26 27 28 28 27 26 24 23 23 22 22 21 22 24 25 23 23 24 24 22 21 23 22 18 17 18 20 19 17 16 16 16 16 16 15 14 14 15 13 12 13 12 12 13 13 15 16 14 15 14 12 13 13 12 11 10 10 13 14 15 17 18 19 20 19 19 17 16 18 19 20 23 23 21 20 18 19 22 24 26 28 28 28 27 27 26
28 29 29 28 30 29 28 27 25 23 22 20 21 22 22 25 26 24 23 23 22 23 22 22 22 19 17 17 19 19 18 18 18 16 17 18 16 13 15 17 13 12 13 13 12 13 12 13 15 14 14 12 11 13 13 11 10 10 10 13 14 15 16 16 17 18 19 19 18 17 16 18 22 23 19 17 18 20 22 25 26 28 31 32 30 29 29 27
23 24 25 24 25 27 26 26 26 25 23 21 22 22 22 26 27 24 23 23 22 23 22 22 22 21 19 19 19 18 18 19 19 18 18 18 17 14 15 17 15 12 13 14 13 13 13 12 13 13 13 12 11 13 12 10 9 10 12 14 14 15 15 16 17 18 19 20 20 20 18 20 23 19 14 16 21 25 26 27 29 31 32 33 33 32 30 27
23 23 22 21 22 24 24 26 27 26 26 24 24 24 23 26 28 25 24 25 24 23 23 23 23 22 21 20 19 18 18 18 19 19 19 19 18 16 15 16 16 14 14 15 15 14 14 13 12 13 13 11 12 13 11 10 11 12 13 14 14 15 16 16 17 18 19 20 20 21 21 22 23 21 22 26 28 28 28 28 30 32 33 34 35 34 31 28
26 26 25 22 22 23 24 26 28 27 26 25 25 25 24 25 28 27 25 25 25 23 23 23 23 23 22 21 20 19 18 18 19 19 19 19 19 17 14 14 16 16 15 17 17 14 14 14 12 12 12 12 14 14 11 11 13 14 14 14 15 16 17 16 16 17 18 19 20 22 23 25 25 25 27 28 29 29 30 29 30 32 34 34 34 34 32 30
27 27 27 26 25 25 25 27 29 29 28 27 26 26 25 25 27 28 25 25 25 24 23 23 23 23 23 21 20 19 18 18 18 19 20 19 19 18 15 14 16 16 15 17 17 14 15 15 13 12 12 12 14 14 12 12 14 14 14 14 14 15 16 16 17 17 18 19 21 23 25 26 26 27 29 29 29 30 30 30 31 32 34 35 35 35 34 33
30 29 29 28 27 27 26 26 28 29 29 29 28 28 27 25 26 27 26 25 24 24 24 23 23 23 23 22 20 19 19 18 17 19 21 20 19 20 18 15 15 16 16 17 16 15 16 15 14 13 12 12 13 13 13 14 15 15 14 13 14 14 15 16 17 19 20 19 20 22 23 24 25 27 30 30 31 31 31 32 33 33 34 36 37 37 37 36
32 32 32 31 29 28 28 27 27 28 28 27 27 28 28 26 25 24 25 25 25 24 24 24 23 22 22 22 20 20 20 19 18 18 20 21 19 19 20 17 15 17 17 16 16 16 17 16 14 14 13 13 12 11 14 16 15 16 15 14 16 16 16 18 19 21 21 19 19 20 20 22 26 27 28 30 30 31 32 32 33 34 35 38 40 40 39 38
30 30 32 32 31 31 31 29 27 27 26 25 25 26 28 28 26 25 26 27 26 25 25 24 23 22 22 23 21 20 20 20 19 18 19 21 19 19 21 18 15 17 17 16 16 17 17 16 15 15 15 15 13 13 16 18 16 16 17 17 18 18 17 19 21 21 21 20 20 21 20 21 25 28 29 30 30 30 33 34 34 36 38 40 40 39 38 38
28 28 29 30 31 31 31 31 29 27 26 25 25 25 26 28 29 28 27 27 26 25 25 24 24 23 23 24 22 21 20 19 19 18 18 20 19 19 21 20 17 17 17 17 18 17 16 16 15 16 15 15 16 16 17 19 19 17 17 18 19 18 19 21 22 22 23 22 20 21 22 22 23 26 29 31 31 31 33 35 36 36 38 39 39 37 36 35
28 28 27 27 29 29 29 29 28 26 25 25 25 27 26 26 28 29 28 27 26 25 25 25 25 24 24 24 23 22 21 19 19 19 19 20 19 19 20 21 20 18 17 18 18 17 17 17 16 16 15 15 17 17 18 20 20 19 18 18 19 20 20 21 22 22 23 24 22 21 23 24 23 25 29 30 31 31 32 34 35 35 35 35 35 34 33 32
25 26 25 24 25 27 27 26 25 25 25 25 25 26 26 26 27 29 28 28 27 27 27 26 25 25 25 24 24 23 21 20 19 19 19 20 19 19 19 19 21 19 17 18 18 17 17 17 17 16 15 14 15 17 19 21 21 20 19 18 18 20 21 22 21 21 23 24 22 22 24 25 25 27 29 29 29 30 30 32 33 34 33 32 31 31 31 32
21 21 21 21 21 22 23 22 22 22 24 24 24 24 23 23 24 27 28 29 29 28 29 28 26 27 26 25 25 24 22 21 19 18 20 20 19 19 18 18 20 20 18 18 18 18 17 17 17 17 15 14 14 16 19 21 21 20 17 16 16 18 20 21 21 21 23 23 22 22 24 24 26 28 28 27 28 29 30 31 32 32 31 30 30 30 30 31
20 19 19 19 19 19 18 18 20 21 22 23 23 22 20 20 21 23 27 29 29 29 30 31 30 28 27 26 26 23 22 22 20 18 20 20 18 18 18 18 20 21 20 18 18 18 17 17 18 17 16 15 15 16 18 20 20 18 15 15 17 18 20 21 21 21 22 22 21 22 22 22 25 28 27 27 28 29 30 31 30 29 29 30 30 29 29 30
20 21 20 19 18 18 18 18 20 22 21 22 22 21 20 21 21 21 23 27 29 30 32 33 32 30 29 28 26 23 22 22 20 18 20 19 17 17 18 18 19 21 20 18 17 18 18 18 18 18 17 15 16 18 19 19 19 16 14 15 17 18 19 19 19 20 20 21 21 22 22 23 25 26 26 27 29 30 30 30 29 27 28 31 30 29 29 30
21 23 22 21 18 18 20 21 22 22 22 22 22 22 22 23 23 23 23 24 27 30 32 33 33 32 31 29 26 23 21 21 19 18 18 18 17 17 18 17 18 18 18 17 17 18 18 18 18 19 18 16 17 20 21 20 18 15 15 17 19 19 18 17 17 18 18 20 21 21 21 23 25 26 27 27 28 30 31 30 28 27 28 30 30 29 29 29
Wind_Direction
332 332 332 331 328 326 325 322 322 322 322 323 323 322 319 316 312 309 307 306 306 306 307 309 310 310 310 309 310 309 310 309 307 305 304 302 300 299 298 296 296 295 294 292 291 289 287 285 282 279 276 272 269 267 265 262 259 257 256 255 253 253 251 248 247 247 248 248 250 247 242 247 254 256 257 255 245 241 244 245 245 240 239 244 250 254 254 255
330 331 331 329 327 324 323 322 322 323 323 325 325 325 323 322 320 314 311 310 309 309 308 309 309 310 310 310 310 310 312 310 308 307 305 303 301 301 299 299 299 298 298 295 294 293 290 288 285 281 277 273 270 267 264 261 258 256 256 255 253 250 247 248 245 241 239 244 257 250 233 243 256 248 237 244 244 238 243 247 250 243 239 246 256 262 258 256
331 332 331 329 327 324 323 321 320 320 321 323 325 326 324 323 321 317 314 312 310 309 310 310 310 311 310 310 310 311 313 310 309 308 305 304 302 302 302 302 302 301 301 299 299 298 296 294 290 286 281 276 273 269 265 262 260 259 258 255 253 251 248 246 243 244 243 239 253 247 227 235 248 244 228 230 239 235 228 232 251 248 243 246 258 266 262 259
334 332 331 331 328 326 324 321 320 318 318 320 322 324 323 321 318 316 314 312 311 311 311 311 311 311 310 310 311 312 312 311 309 308 307 306 305 304 304 305 304 305 305 306 306 304 303 301 296 292 287 281 278 273 269 268 267 265 260 255 252 251 248 243 239 259 257 238 236 237 225 225 227 240 237 233 239 240 230 221 231 236 232 239 261 266 261 260
336 334 332 332 329 327 324 322 321 319 320 320 321 321 320 319 317 315 313 312 312 312 312 311 310 310 310 311 312 313 313 312 310 310 310 307 307 307 308 308 309 311 312 313 312 311 311 307 304 299 294 289 281 278 279 279 272 265 262 260 256 252 250 241 213 224 242 231 226 229 222 217 215 221 232 235 235 234 238 230 224 234 230 225 248 258 259 256
339 336 333 332 329 327 325 323 321 320 321 321 321 320 318 318 316 316 314 314 314 313 312 310 310 310 311 313 314 314 313 314 315 313 311 309 311 311 311 313 315 317 319 320 319 319 317 313 312 307 307 300 286 285 280 272 268 269 271 269 262 257 255 241 219 217 221 222 224 224 218 216 216 217 224 234 233 229 233 227 216 215 208 213 231 241 251 250
341 337 333 331 329 326 325 323 320 319 320 319 319 318 318 317 317 317 316 317 316 314 313 311 312 312 314 315 314 315 315 317 316 314 312 313 314 313 315 318 321 324 325 326 325 325 323 321 321 317 319 308 297 294 265 269 276 279 279 275 270 263 257 245 236 232 227 231 235 231 225 226 225 224 228 236 239 238 239 238 236 222 208 220 225 226 240 247
341 336 332 330 327 325 323 322 319 318 318 318 318 317 318 318 318 319 318 318 317 316 315 313 314 315 316 315 315 316 316 316 314 314 316 316 316 316 320 323 327 330 330 331 330 330 329 326 327 324 323 310 306 301 280 291 294 286 278 270 273 266 265 260 250 246 241 244 251 249 244 243 243 241 240 240 242 245 245 246 251 244 228 234 237 230 239 247
340 336 332 329 326 324 322 322 320 319 319 318 318 318 319 320 320 320 320 319 318 317 316 315 316 316 316 315 316 317 316 317 316 318 319 318 318 320 325 329 332 333 333 334 335 334 332 331 330 329 327 317 317 309 300 307 294 284 282 254 244 255 272 279 263 254 249 248 253 256 256 257 257 255 252 249 248 248 250 248 248 246 233 233 242 238 239 245
337 336 333 330 327 325 324 323 321 321 321 320 320 320 321 321 322 322 321 320 319 318 317 316 317 316 316 317 319 319 318 318 317 320 320 320 322 325 329 333 335 336 336 338 339 338 335 336 333 332 332 325 326 321 311 307 280 281 285 271 261 260 273 281 269 262 258 253 252 257 260 261 263 262 259 257 257 253 249 247 243 244 239 236 243 243 240 244
334 333 331 329 326 325 324 323 322 322 321 321 321 321 322 323 323 322 321 320 320 319 317 317 317 317 318 320 321 320 318 318 318 321 321 321 324 328 332 335 337 338 340 341 342 341 339 338 336 335 334 330 331 326 322 311 291 285 279 281 281 272 274 275 272 267 262 260 256 258 262 265 266 266 264 260 256 252 246 245 245 245 245 243 246 249 246 246
332 331 330 328 326 324 323 321 320 320 320 320 320 320 321 321 322 322 322 322 321 320 318 316 317 318 319 320 320 318 317 318 320 321 321 323 326 330 334 337 340 341 342 342 344 343 341 340 337 337 333 332 332 327 326 318 302 292 280 281 283 282 290 282 273 266 263 268 261 258 262 267 268 268 272 256 236 247 250 247 247 247 249 248 248 250 249 247
330 329 329 328 327 325 323 321 320 320 319 319 319 320 320 320 321 321 321 321 321 319 316 315 317 318 318 319 318 317 318 319 320 321 321 325 328 332 336 339 342 344 343 343 346 344 342 342 338 337 335 328 328 329 326 318 307 296 284 281 280 308 325 292 272 267 255 256 258 262 256 264 295 284 273 246 236 251 257 251 249 249 248 247 246 246 244 243
326 327 328 327 327 326 325 323 322 320 319 319 319 319 320 319 319 319 319 319 318 317 316 316 318 316 316 318 316 314 317 319 320 320 322 327 330 333 336 340 343 345 345 344 345 344 342 342 340 338 335 327 327 329 323 312 301 291 291 302 305 335 315 260 256 284 279 267 266 251 220 107 357 283 247 236 247 258 257 253 252 248 245 246 246 246 245 244
322 323 324 325 325 324 324 324 323 322 321 320 319 319 318 318 317 317 317 316 316 316 316 318 317 316 317 314 312 315 318 319 319 320 325 330 332 333 335 341 344 344 344 344 343 341 341 341 339 338 337 333 328 326 329 330 325 313 305 312 301 284 276 257 264 281 263 269 274 223 181 127 191 205 216 241 258 263 259 255 253 248 247 249 250 250 250 251
317 318 319 321 322 323 323 322 322 321 321 320 319 319 317 315 314 314 314 314 314 315 317 319 317 315 314 308 309 317 319 320 321 323 327 331 332 332 335 340 343 342 342 341 339 335 338 339 335 336 335 332 333 338 349 355 343 310 278 281 283 254 269 280 280 289 257 240 260 214 187 203 221 211 251 269 267 266 264 258 250 245 244 246 248 249 249 249
312 314 314 316 317 318 320 321 321 320 319 320 319 318 317 315 313 312 313 312 313 315 316 317 316 316 315 315 319 322 322 322 323 324 327 331 331 331 334 339 340 339 338 335 333 331 336 335 329 335 333 329 342 351 346 335 313 302 275 273 285 272 273 269 271 304 303 253 251 237 217 213 227 255 286 287 279 273 264 254 248 244 241 242 245 246 245 244
309 309 310 312 312 314 316 317 318 318 318 318 318 318 318 316 313 311 311 310 311 314 316 318 319 321 317 315 319 324 325 324 323 325 327 330 331 331 332 337 338 334 335 331 327 325 327 326 329 341 339 336 349 344 330 322 305 303 295 283 285 278 272 266 261 276 279 256 257 253 240 233 229 243 279 288 271 265 255 245 245 244 242 243 243 244 244 242
309 307 307 308 309 310 311 313 315 316 317 317 317 317 317 316 313 312 312 310 311 315 317 316 317 318 314 311 317 324 324 323 324 325 326 328 330 330 329 334 337 331 327 324 319 317 320 323 329 339 339 338 342 330 320 315 304 296 290 287 289 284 278 277 265 255 259 266 270 268 261 256 244 241 256 260 259 264 260 249 246 245 242 241 240 241 243 242
309 307 305 305 307 307 308 310 312 313 315 317 317 317 317 316 313 311 309 307 309 314 314 312 314 315 314 316 321 324 323 322 323 323 323 326 328 330 329 331 334 327 319 319 318 315 320 323 319 319 330 337 330 319 316 314 311 302 288 286 284 281 284 283 270 260 262 264 270 278 271 265 262 252 239 244 263 277 271 260 251 246 245 244 244 246 249 248
309 307 305 303 304 305 305 307 309 311 314 316 317 317 318 317 315 312 308 306 309 314 316 316 316 317 317 320 321 322 322 320 319 319 322 324 327 330 329 330 332 326 318 319 315 309 312 314 306 307 326 331 320 317 318 314 315 313 299 291 284 278 272 270 270 265 261 264 275 288 277 269 273 272 258 254 266 273 267 264 258 254 256 254 252 254 255 254
307 306 304 302 302 303 303 304 306 308 311 314 316 317 318 318 318 316 314 313 316 317 318 316 315 317 319 319 319 319 317 316 316 318 320 322 326 329 328 330 329 322 316 312 303 298 300 302 303 312 321 317 313 318 319 313 313 310 304 298 291 286 274 269 280 276 267 276 286 290 280 271 267 268 269 262 259 259 258 260 262 261 260 256 254 255 257 258
304 303 302 301 300 300 300 302 304 306 309 312 315 316 318 319 319 318 315 313 317 317 314 314 313 314 314 310 309 311 312 314 316 320 321 321 325 327 326 329 328 320 312 301 293 293 294 298 304 308 312 308 307 314 314 311 311 306 308 308 301 299 297 298 301 290 289 295 293 285 279 273 263 260 264 261 255 255 260 264 265 264 260 259 259 257 258 260
301 301 300 299 298 297 297 298 300 303 306 309 313 315 318 320 319 317 314 311 315 316 310 310 311 311 310 306 305 307 311 312 314 320 324 323 324 324 323 326 325 317 306 295 290 284 285 296 303 302 308 306 303 308 308 311 317 315 316 314 307 304 304 308 301 287 292 297 290 282 276 269 262 257 253 253 255 261 270 275 270 265 263 263 262 259 258 259
298 298 298 298 296 295 294 295 296 299 303 306 311 314 317 320 317 316 314 309 312 317 312 309 310 311 310 309 308 309 312 311 312 319 324 322 321 321 322 323 317 308 303 299 294 279 275 289 298 297 303 306 302 301 299 306 316 318 316 309 306 300 294 297 290 280 285 291 289 285 279 269 261 256 243 240 257 273 272 272 270 264 261 261 263 264 263 261
296 296 296 296 295 293 292 292 293 296 300 303 307 311 315 318 315 315 313 308 310 314 311 310 310 312 310 306 304 304 308 308 310 317 321 321 320 319 322 323 316 306 301 300 298 286 279 285 289 288 294 301 300 291 289 308 314 312 311 307 305 297 290 289 286 286 290 291 288 280 280 279 267 257 245 239 260 274 270 267 267 263 261 262 264 267 267 266
294 294 294 293 293 292 290 289 290 292 297 300 303 307 311 314 314 313 311 310 311 310 310 313 312 312 312 307 303 304 307 308 310 316 319 320 320 319 320 323 320 311 304 299 296 290 287 287 283 281 287 293 294 289 298 315 312 307 308 308 306 298 290 289 286 288 291 293 293 280 277 289 275 258 258 258 261 267 271 270 267 268 268 268 267 267 267 267
293 293 292 291 291 291 289 288 287 289 293 296 300 304 307 310 312 312 309 309 309 306 308 314 313 312 315 311 309 309 309 309 312 315 318 319 320 320 320 320 318 313 308 300 291 289 292 294 289 283 282 284 288 293 305 309 304 303 306 308 313 307 293 289 287 288 287 292 299 284 270 283 278 259 257 262 259 260 265 268 275 281 278 274 274 271 268 265
292 292 291 290 289 289 289 287 285 286 289 293 297 301 303 307 309 310 309 306 302 302 305 311 313 312 315 313 309 307 308 309 311 313 316 317 317 318 316 314 313 310 306 292 282 291 300 301 296 286 277 277 283 289 295 299 298 299 300 303 311 307 291 283 280 284 287 289 297 288 266 265 266 260 261 270 270 257 253 265 284 289 284 283 283 280 276 272
291 290 290 289 287 288 288 287 286 284 286 290 293 297 300 303 306 309 309 303 298 298 300 306 310 311 313 313 307 304 304 306 307 309 312 314 314 315 312 310 312 309 304 297 288 296 304 305 300 292 283 281 283 284 286 289 293 296 295 297 301 297 291 283 273 275 285 290 291 276 259 257 262 270 279 284 277 259 253 272 288 289 288 291 291 288 285 282
289 288 288 288 287 287 286 286 286 285 285 288 291 294 296 299 304 308 308 302 297 298 300 300 302 308 312 311 309 308 304 302 302 304 308 309 309 310 307 306 310 310 307 305 301 303 307 307 307 303 297 293 289 286 285 284 284 286 287 291 297 302 310 310 292 278 286 302 296 263 251 260 268 276 283 279 274 265 265 278 288 290 291 295 295 292 289 286
286 287 287 287 287 287 286 284 284 284 285 287 288 290 292 296 300 305 305 298 294 301 303 301 300 304 308 306 307 309 305 302 300 301 305 306 306 308 309 308 311 312 305 295 293 298 302 302 303 304 300 299 297 295 293 289 284 279 281 290 300 304 310 314 303 284 286 302 291 264 261 263 263 272 281 278 275 271 270 278 286 290 290 292 295 293 290 288
284 285 286 286 286 285 285 284 282 282 283 284 286 287 288 291 295 297 296 291 293 300 300 301 302 302 303 304 305 305 303 304 302 299 300 303 305 308 311 309 308 304 293 286 283 282 285 289 292 296 298 297 298 298 297 295 290 283 282 285 291 294 298 302 303 294 293 296 285 273 275 271 268 275 283 280 277 275 275 281 285 286 288 289 291 289 287 286
280 283 285 285 285 284 284 284 282 281 282 283 284 284 284 288 289 289 287 286 292 301 298 298 299 297 298 299 300 300 299 301 303 299 298 298 299 303 306 302 301 299 289 283 280 276 280 285 284 285 289 293 296 296 296 296 294 290 286 282 283 288 291 295 297 296 297 297 293 290 283 276 278 283 283 277 276 279 281 283 282 281 285 287 285 282 282 283
277 281 284 284 284 284 283 282 282 281 281 281 281 281 283 286 284 283 283 283 287 295 297 295 294 295 296 294 293 295 297 300 301 298 297 297 296 301 305 300 301 301 290 281 279 279 278 277 278 281 284 290 294 294 297 298 297 293 286 283 283 283 283 287 290 291 295 295 294 294 285 279 281 285 281 276 278 280 280 282 282 280 285 288 287 281 280 282
276 278 281 283 283 283 281 280 280 279 279 278 277 278 279 278 276 277 280 281 285 291 293 292 292 292 293 294 295 296 299 302 300 298 298 296 295 299 297 295 299 297 290 286 281 275 267 269 281 289 286 289 292 295 303 304 300 298 290 287 289 286 285 285 284 285 289 289 288 288 284 278 279 283 282 280 279 278 279 285 286 285 289 292 293 290 286 285
279 279 279 280 281 281 281 279 278 277 277 276 275 275 275 275 274 276 276 277 282 288 290 290 290 288 286 287 289 293 298 299 298 298 298 295 297 298 291 291 294 290 289 290 281 276 269 269 280 286 284 289 292 295 305 309 306 307 300 296 298 299 295 289 284 283 283 281 280 283 284 279 279 284 284 278 273 275 284 290 291 292 292 293 295 296 294 292
287 285 282 280 279 279 279 277 276 275 274 274 273 272 272 274 275 275 274 274 280 286 288 289 289 286 282 277 280 288 294 296 296 295 293 295 299 298 292 293 293 287 288 289 280 279 276 270 276 280 279 281 286 292 300 306 308 307 306 307 304 301 299 293 288 286 283 281 279 280 280 275 278 284 280 268 268 280 289 292 294 295 294 294 296 296 295 295
299 297 294 290 285 282 280 278 275 272 269 269 270 271 270 271 272 271 270 273 278 283 285 286 286 284 279 277 279 283 286 288 291 291 291 293 295 293 291 295 295 288 287 288 282 279 278 275 273 276 278 277 279 287 292 293 299 303 306 309 304 299 298 295 293 290 286 284 281 279 276 272 276 280 272 268 278 288 293 294 295 296 295 295 296 294 294 295
296 299 301 303 297 291 289 284 278 273 270 267 266 268 267 268 270 269 268 273 276 278 282 284 284 282 278 276 276 277 280 283 283 286 288 289 292 293 290 291 291 289 287 287 285 281 280 279 272 272 279 279 275 279 284 287 291 297 301 302 298 296 295 293 294 293 289 286 283 280 278 274 274 276 275 278 283 287 291 292 294 294 294 295 294 292 292 294
292 291 292 296 297 296 296 291 284 278 272 267 265 266 265 265 267 267 267 271 274 276 279 282 283 281 278 276 275 274 276 278 279 282 284 287 292 293 290 288 286 287 286 284 286 288 285 284 280 274 275 273 270 275 282 282 282 287 294 296 293 291 292 293 292 289 289 289 285 283 282 279 277 277 278 280 283 285 289 291 292 293 293 293 292 290 290 294
293 291 289 289 289 289 292 294 291 284 275 268 265 266 265 262 262 265 267 269 274 276 278 280 281 280 278 275 275 274 274 275 278 281 283 286 289 289 287 285 281 281 280 280 285 290 285 285 285 278 273 269 270 279 287 285 280 282 288 293 289 285 288 293 290 285 288 290 287 284 285 284 282 281 282 283 285 286 288 290 293 294 293 291 291 292 294 297
290 290 289 288 287 287 288 291 294 291 283 274 269 265 265 263 261 265 268 269 272 275 276 278 279 280 279 276 274 273 274 276 277 279 281 284 287 289 290 287 281 280 277 277 282 283 280 283 285 281 275 272 275 283 287 284 283 285 285 289 290 287 287 292 290 285 287 291 289 285 285 286 285 285 286 286 287 287 289 291 292 292 291 290 292 294 296 299
289 288 286 285 285 286 287 288 294 297 293 285 277 270 267 264 261 264 267 268 270 273 274 277 279 279 279 277 275 273 274 275 275 275 280 283 285 287 289 288 283 279 276 274 275 276 277 281 284 281 277 276 277 278 278 279 283 286 285 286 291 290 288 290 290 287 287 289 288 285 286 288 287 288 289 289 287 289 291 291 290 290 290 291 293 296 298 299
291 289 286 284 282 283 284 286 290 296 298 295 287 278 270 264 261 262 264 267 269 272 274 274 276 278 277 276 275 274 273 275 276 275 277 281 284 285 286 287 282 275 274 272 268 270 275 279 281 280 277 276 271 266 272 279 283 283 283 283 286 286 284 286 287 287 287 287 285 285 287 287 288 290 292 290 289 292 295 294 293 292 292 293 295 297 298 300
295 291 289 288 285 281 281 282 285 290 296 297 292 283 275 267 263 259 259 263 268 271 273 272 273 275 276 276 275 274 274 275 277 278 277 279 283 286 287 288 283 275 272 270 268 269 273 277 279 279 278 274 269 267 272 278 281 282 282 282 281 280 279 280 283 286 286 285 285 287 288 287 287 288 290 289 291 294 294 294 294 294 293 294 295 297 299 300
299 295 293 291 288 285 282 280 282 285 290 294 294 290 282 273 266 259 256 259 264 267 269 272 273 274 274 274 274 273 273 273 274 277 277 279 282 283 284 286 284 279 274 270 269 269 271 274 276 278 279 274 269 268 268 273 279 282 282 281 279 278 278 279 282 284 284 284 286 288 288 288 289 288 288 289 293 294 293 293 295 296 295 295 297 299 302 303
302 299 297 293 289 289 287 283 282 285 288 292 296 294 286 277 269 262 257 257 258 261 265 268 270 270 271 272 273 272 271 269 269 273 275 277 280 281 281 282 282 280 275 271 270 269 270 274 275 276 281 279 273 272 271 273 278 280 281 281 279 279 280 280 282 284 282 283 287 287 285 288 292 290 288 290 292 293 292 293 294 296 298 299 301 304 306 306
309 307 307 303 298 294 292 290 288 289 289 291 297 298 292 283 274 265 259 255 255 259 264 265 266 269 270 270 270 271 270 268 267 271 274 277 280 283 282 281 280 280 275 269 269 269 270 274 276 279 284 285 281 277 276 278 279 279 278 278 277 278 279 280 282 282 281 284 287 285 285 288 289 288 289 289 290 291 293 294 295 297 300 303 306 309 310 309
314 316 316 312 307 302 297 294 291 290 289 291 297 302 300 296 287 273 263 257 255 258 261 264 267 270 273 272 269 268 268 269 270 272 273 276 280 282 281 280 278 278 276 270 268 270 272 273 277 281 285 288 287 281 278 281 284 283 278 276 275 274 274 278 280 279 280 283 283 282 286 288 286 285 287 289 289 292 294 294 295 299 303 306 310 313 313 311
313 315 315 312 310 306 301 295 291 290 290 291 298 303 304 303 299 287 272 261 256 255 258 265 270 273 275 274 270 266 267 269 272 273 273 276 279 278 278 279 278 277 277 273 268 269 272 275 278 282 285 288 287 283 282 285 288 290 286 281 278 274 273 276 277 278 281 283 281 279 282 284 283 283 285 287 290 293 295 295 298 304 307 310 314 316 315 314
309 309 311 312 311 305 300 296 294 293 291 291 297 302 303 303 301 294 281 267 259 256 259 265 270 273 274 272 267 265 266 270 272 273 274 277 279 278 279 281 281 279 276 270 267 270 274 276 279 283 286 289 287 285 286 289 294 296 288 279 277 277 279 281 281 282 284 283 282 282 281 282 283 283 285 286 289 293 296 297 302 307 309 312 316 317 317 317
Height
5813 5813 5812 5812 5811 5810 5810 5809 5808 5808 5807 5806 5806 5805 5804 5804 5803 5802 5802 5801 5800 5800 5799 5799 5798 5797 5797 5796 5795 5794 5794 5792 5791 5790 5789 5789 5788 5787 5786 5785 5784 5783 5782 5781 5780 5779 5778 5777 5776 5775 5774 5772 5772 5772 5771 5771 5770 5768 5769 5770 5772 5774 5775 5776 5778 5781 5783 5783 5786 5790 5793 5795 5794 5792 5792 5791 5789 5792 5795 5797 5798 5799 5800 5801 5799 5795 5796 5798
5813 5812 5812 5811 5811 5810 5809 5808 5808 5807 5806 5806 5805 5804 5803 5803 5802 5802 5801 5800 5800 5799 5798 5798 5797 5796 5795 5794 5793 5793 5792 5791 5789 5788 5787 5786 5785 5784 5783 5783 5782 5781 5780 5778 5777 5776 5775 5773 5772 5771 5769 5768 5767 5767 5766 5765 5764 5764 5765 5765 5767 5768 5770 5772 5774 5776 5776 5778 5781 5784 5787 5789 5790 5788 5788 5786 5786 5788 5791 5794 5795 5796 5797 5799 5799 5793 5790 5795
5812 5812 5811 5811 5810 5809 5808 5808 5807 5806 5806 5805 5804 5803 5803 5802 5801 5800 5800 5799 5798 5798 5797 5796 5795 5794 5793 5792 5792 5791 5790 5789 5787 5786 5785 5784 5783 5782 5781 5780 5779 5778 5777 5775 5774 5772 5771 5769 5768 5767 5765 5763 5762 5762 5761 5760 5759 5760 5760 5761 5762 5763 5765 5767 5769 5771 5771 5772 5775 5777 5780 5783 5784 5782 5781 5781 5781 5783 5786 5790 5792 5794 5795 5799 5799 5791 5786 5790
5812 5811 5811 5810 5809 5808 5808 5807 5806 5805 5805 5804 5803 5802 5802 5801 5800 5799 5798 5798 5797 5796 5795 5794 5794 5793 5791 5790 5789 5788 5788 5787 5785 5784 5783 5782 5781 5780 5779 5778 5777 5776 5774 5772 5771 5769 5767 5766 5764 5763 5761 5760 5758 5758 5757 5757 5756 5755 5755 5756 5758 5759 5760 5762 5766 5769 5767 5765 5767 5770 5772 5774 5777 5778 5777 5777 5778 5781 5783 5786 5789 5791 5792 5797 5798 5790 5785 5783
5812 5811 5810 5810 5809 5808 5807 5806 5805 5804 5803 5803 5802 5801 5800 5800 5799 5798 5797 5796 5795 5794 5794 5793 5792 5791 5789 5788 5787 5786 5785 5784 5783 5782 5781 5780 5779 5778 5777 5776 5774 5773 5771 5769 5767 5765 5764 5762 5761 5759 5758 5757 5755 5754 5753 5754 5752 5750 5751 5752 5754 5755 5755 5758 5760 5761 5759 5759 5760 5762 5766 5768 5770 5770 5771 5773 5774 5777 5779 5782 5786 5789 5790 5794 5794 5788 5783 5779
5811 5811 5810 5809 5808 5807 5806 5805 5804 5803 5802 5802 5801 5800 5799 5798 5797 5796 5795 5794 5794 5793 5792 5791 5790 5789 5787 5786 5785 5784 5783 5782 5781 5780 5779 5778 5777 5776 5774 5773 5771 5770 5768 5766 5764 5762 5760 5759 5758 5756 5755 5754 5753 5753 5752 5751 5749 5747 5748 5749 5750 5751 5751 5752 5751 5750 5751 5751 5751 5754 5758 5760 5761 5762 5763 5764 5767 5769 5772 5775 5779 5783 5785 5788 5789 5782 5777 5776
5811 5810 5809 5808 5807 5806 5805 5804 5803 5802 5801 5800 5800 5799 5798 5797 5796 5795 5794 5793 5792 5791 5790 5789 5788 5787 5786 5784 5783 5782 5781 5780 5779 5778 5777 5776 5775 5773 5772 5771 5769 5767 5765 5763 5761 5759 5758 5756 5755 5754 5753 5752 5750 5751 5750 5748 5747 5745 5746 5745 5747 5748 5745 5744 5745 5746 5748 5746 5746 5751 5754 5754 5757 5759 5759 5760 5764 5765 5767 5770 5773 5777 5778 5777 5779 5777 5773 5774
5811 5810 5809 5808 5807 5805 5804 5803 5802 5801 5800 5799 5798 5797 5796 5796 5795 5793 5792 5791 5790 5789 5788 5787 5786 5785 5784 5783 5781 5780 5779 5778 5777 5776 5775 5774 5773 5771 5770 5768 5766 5764 5762 5760 5759 5757 5756 5754 5753 5752 5751 5750 5749 5749 5747 5746 5745 5743 5743 5743 5745 5745 5740 5740 5744 5744 5746 5745 5746 5750 5752 5752 5754 5755 5755 5758 5760 5761 5763 5767 5769 5771 5775 5773 5772 5773 5773 5774
5810 5809 5808 5807 5806 5805 5804 5803 5801 5800 5799 5798 5797 5796 5795 5794 5793 5792 5791 5790 5789 5788 5787 5785 5784 5783 5782 5781 5780 5778 5777 5776 5775 5774 5773 5772 5771 5769 5768 5766 5764 5762 5760 5758 5756 5755 5754 5752 5751 5750 5749 5748 5747 5746 5744 5744 5744 5741 5740 5741 5741 5741 5738 5739 5741 5741 5742 5744 5744 5745 5747 5749 5749 5750 5751 5754 5756 5758 5759 5762 5763 5764 5769 5769 5766 5770 5772 5771
5810 5809 5808 5806 5805 5804 5803 5802 5800 5799 5798 5797 5796 5795 5794 5793 5792 5791 5790 5788 5787 5786 5785 5784 5783 5782 5780 5779 5778 5776 5775 5774 5773 5772 5771 5770 5769 5767 5765 5763 5762 5760 5758 5756 5754 5753 5752 5751 5750 5748 5747 5746 5745 5744 5743 5742 5741 5739 5738 5738 5738 5738 5737 5737 5738 5738 5739 5741 5741 5742 5743 5744 5745 5746 5747 5751 5753 5753 5754 5756 5758 5758 5761 5763 5761 5765 5769 5768
5810 5808 5807 5806 5805 5803 5802 5801 5800 5798 5797 5796 5795 5794 5793 5792 5791 5790 5788 5787 5786 5784 5783 5782 5781 5780 5779 5777 5776 5775 5774 5772 5771 5770 5769 5768 5766 5765 5763 5761 5760 5758 5756 5754 5753 5752 5751 5749 5748 5747 5745 5744 5743 5742 5741 5740 5738 5737 5737 5736 5736 5736 5736 5736 5736 5736 5736 5738 5739 5739 5741 5742 5743 5743 5744 5749 5747 5744 5748 5752 5753 5754 5755 5759 5760 5761 5764 5766
5809 5808 5806 5805 5804 5802 5801 5800 5799 5797 5796 5795 5794 5793 5792 5791 5789 5788 5787 5785 5784 5783 5782 5780 5779 5778 5777 5776 5774 5773 5772 5771 5769 5768 5767 5766 5764 5763 5761 5759 5758 5756 5754 5752 5751 5750 5749 5748 5747 5745 5744 5743 5742 5740 5739 5738 5736 5736 5735 5735 5735 5734 5734 5734 5734 5734 5735 5736 5736 5737 5740 5740 5741 5741 5742 5744 5741 5739 5746 5749 5749 5750 5753 5757 5758 5758 5759 5762
5808 5807 5806 5804 5803 5802 5800 5799 5797 5796 5795 5794 5792 5791 5790 5789 5788 5786 5785 5784 5783 5781 5780 5779 5778 5777 5775 5774 5773 5771 5770 5769 5768 5766 5765 5764 5762 5761 5759 5757 5756 5754 5752 5751 5749 5749 5748 5747 5745 5744 5743 5742 5741 5740 5738 5736 5735 5735 5734 5734 5734 5734 5735 5734 5732 5733 5733 5734 5734 5735 5738 5738 5738 5739 5739 5738 5736 5738 5744 5745 5746 5748 5750 5751 5752 5752 5753 5755
5807 5806 5805 5803 5802 5800 5799 5798 5796 5795 5793 5792 5791 5790 5788 5787 5786 5785 5783 5782 5781 5780 5779 5777 5776 5775 5774 5772 5771 5770 5768 5767 5766 5765 5763 5762 5760 5759 5757 5756 5754 5753 5751 5749 5748 5748 5747 5745 5744 5743 5742 5740 5739 5738 5737 5735 5734 5734 5733 5733 5733 5735 5736 5735 5732 5732 5733 5732 5732 5734 5736 5737 5738 5739 5736 5733 5734 5738 5740 5740 5743 5745 5745 5745 5747 5748 5749 5752
5806 5805 5803 5802 5801 5799 5798 5796 5795 5793 5792 5791 5789 5788 5787 5785 5784 5783 5782 5780 5779 5778 5777 5775 5774 5773 5772 5771 5770 5768 5767 5766 5764 5763 5762 5760 5759 5757 5756 5754 5753 5751 5750 5749 5747 5747 5746 5744 5743 5742 5741 5739 5738 5737 5736 5734 5733 5733 5733 5734 5734 5736 5736 5734 5732 5731 5732 5732 5731 5733 5735 5736 5738 5738 5734 5732 5734 5736 5735 5737 5740 5741 5741 5742 5744 5745 5748 5751
5804 5803 5802 5801 5800 5798 5797 5795 5793 5792 5791 5789 5788 5786 5785 5784 5782 5781 5780 5779 5777 5776 5774 5773 5772 5771 5770 5770 5769 5767 5765 5764 5762 5761 5760 5758 5757 5756 5754 5752 5751 5750 5749 5748 5746 5745 5744 5743 5742 5741 5739 5738 5737 5735 5735 5734 5733 5734 5734 5734 5734 5735 5734 5733 5731 5730 5731 5732 5731 5732 5733 5735 5736 5736 5732 5731 5733 5733 5732 5735 5736 5737 5738 5738 5740 5742 5744 5746
5803 5802 5800 5799 5798 5797 5795 5794 5792 5790 5789 5788 5786 5785 5783 5782 5780 5779 5778 5777 5775 5774 5773 5772 5771 5769 5767 5766 5766 5765 5764 5762 5760 5759 5758 5757 5756 5754 5753 5751 5750 5749 5747 5746 5745 5744 5743 5742 5741 5740 5738 5737 5735 5734 5734 5734 5733 5734 5734 5733 5733 5733 5733 5733 5731 5730 5730 5730 5730 5731 5732 5732 5734 5734 5732 5731 5731 5730 5730 5731 5732 5733 5734 5735 5737 5739 5740 5740
5801 5800 5799 5797 5796 5795 5794 5792 5791 5789 5787 5786 5784 5783 5781 5780 5779 5777 5776 5775 5774 5772 5771 5769 5768 5767 5766 5764 5763 5763 5761 5760 5759 5757 5756 5755 5754 5752 5751 5750 5748 5747 5746 5746 5744 5743 5742 5741 5740 5739 5737 5736 5734 5734 5734 5734 5733 5733 5732 5732 5732 5731 5731 5731 5731 5730 5728 5728 5728 5729 5730 5730 5731 5732 5732 5733 5730 5728 5728 5729 5730 5731 5732 5733 5734 5734 5734 5735
5799 5798 5797 5796 5794 5793 5792 5790 5789 5787 5786 5784 5783 5781 5779 5778 5777 5775 5774 5773 5772 5770 5769 5767 5766 5766 5765 5764 5762 5761 5760 5758 5757 5755 5754 5753 5752 5751 5749 5748 5747 5746 5745 5744 5743 5742 5741 5740 5739 5738 5737 5736 5735 5734 5734 5734 5733 5733 5731 5731 5730 5730 5730 5730 5730 5729 5727 5727 5727 5727 5728 5728 5728 5729 5731 5732 5729 5726 5727 5727 5728 5729 5729 5730 5729 5728 5728 5729
5797 5796 5795 5794 5792 5791 5790 5789 5787 5786 5784 5782 5781 5779 5778 5776 5775 5774 5772 5771 5769 5768 5767 5766 5765 5764 5763 5762 5761 5760 5758 5757 5755 5754 5753 5752 5751 5750 5748 5747 5746 5744 5743 5742 5741 5740 5739 5738 5738 5737 5736 5735 5735 5735 5734 5733 5732 5731 5730 5730 5729 5729 5729 5728 5728 5727 5726 5725 5725 5725 5726 5725 5725 5726 5727 5728 5726 5725 5725 5725 5725 5726 5726 5726 5726 5725 5726 5727
5794 5793 5792 5791 5790 5789 5788 5787 5785 5784 5782 5780 5779 5777 5776 5774 5772 5771 5770 5769 5767 5766 5765 5764 5762 5761 5761 5760 5759 5758 5757 5756 5754 5753 5751 5750 5749 5748 5747 5745 5744 5743 5741 5740 5739 5739 5738 5737 5737 5736 5735 5735 5735 5734 5733 5732 5731 5730 5729 5728 5728 5727 5727 5726 5725 5725 5724 5724 5723 5723 5723 5723 5723 5723 5724 5724 5723 5723 5722 5721 5722 5723 5723 5724 5724 5724 5724 5725
5792 5791 5790 5789 5788 5787 5786 5784 5783 5782 5780 5778 5777 5775 5773 5772 5770 5768 5767 5767 5765 5764 5763 5762 5761 5759 5759 5758 5757 5756 5755 5754 5753 5752 5750 5749 5748 5746 5745 5744 5743 5741 5740 5739 5738 5737 5737 5736 5736 5735 5735 5734 5734 5733 5732 5731 5729 5728 5727 5726 5726 5725 5724 5724 5723 5722 5722 5722 5722 5722 5721 5721 5721 5721 5721 5721 5721 5721 5719 5718 5719 5720 5721 5722 5722 5722 5722 5722
5789 5788 5787 5786 5785 5784 5783 5782 5781 5780 5778 5777 5775 5773 5771 5770 5768 5767 5765 5765 5764 5763 5761 5760 5759 5758 5758 5757 5756 5755 5754 5752 5751 5751 5749 5747 5746 5744 5743 5743 5741 5740 5739 5738 5737 5736 5735 5735 5735 5734 5733 5733 5732 5732 5731 5730 5729 5727 5726 5725 5724 5723 5722 5722 5721 5720 5719 5720 5720 5720 5719 5719 5719 5719 5719 5718 5718 5717 5716 5717 5718 5718 5718 5719 5719 5720 5720 5720
5786 5785 5785 5784 5783 5782 5781 5779 5778 5777 5776 5775 5773 5771 5770 5768 5767 5765 5764 5763 5763 5762 5760 5759 5758 5757 5756 5755 5755 5754 5753 5751 5750 5749 5748 5746 5745 5743 5742 5741 5740 5739 5738 5736 5735 5735 5734 5733 5733 5733 5732 5732 5731 5730 5730 5729 5728 5726 5725 5724 5723 5722 5721 5720 5719 5718 5718 5718 5717 5717 5717 5717 5716 5716 5717 5716 5715 5715 5714 5715 5716 5716 5716 5716 5715 5716 5716 5716
5783 5782 5781 5781 5780 5779 5778 5777 5776 5775 5774 5773 5771 5770 5768 5767 5765 5764 5762 5761 5761 5760 5758 5757 5756 5755 5754 5753 5752 5752 5751 5750 5748 5748 5747 5745 5743 5742 5741 5739 5738 5738 5736 5735 5734 5734 5733 5731 5731 5731 5731 5730 5729 5729 5728 5727 5727 5726 5724 5723 5722 5721 5720 5719 5719 5717 5717 5716 5715 5714 5714 5714 5714 5714 5714 5714 5714 5713 5713 5713 5713 5713 5713 5712 5712 5712 5713 5713
5781 5780 5779 5778 5777 5776 5776 5774 5773 5772 5771 5770 5769 5768 5766 5765 5764 5762 5760 5759 5758 5758 5757 5756 5754 5753 5752 5751 5751 5750 5749 5749 5747 5746 5745 5744 5742 5740 5739 5738 5737 5736 5735 5734 5733 5732 5731 5730 5730 5730 5729 5729 5728 5727 5726 5726 5725 5725 5724 5722 5721 5721 5719 5718 5717 5716 5715 5714 5713 5712 5712 5712 5712 5712 5711 5713 5713 5711 5710 5711 5710 5710 5709 5709 5709 5709 5709 5709
5778 5777 5776 5775 5774 5774 5773 5772 5771 5770 5769 5768 5767 5766 5765 5763 5762 5760 5759 5757 5756 5755 5755 5755 5753 5752 5751 5749 5749 5748 5747 5746 5746 5745 5743 5742 5741 5739 5738 5737 5735 5734 5734 5733 5731 5730 5729 5729 5729 5728 5728 5727 5726 5725 5724 5724 5724 5723 5722 5721 5720 5719 5718 5717 5716 5715 5714 5713 5712 5711 5710 5710 5709 5709 5709 5711 5711 5708 5707 5709 5708 5707 5707 5706 5707 5707 5706 5706
5774 5773 5773 5772 5771 5770 5770 5769 5768 5767 5767 5766 5765 5764 5763 5761 5760 5759 5757 5756 5755 5753 5752 5752 5751 5750 5749 5747 5746 5745 5745 5744 5743 5743 5742 5740 5739 5738 5736 5735 5734 5733 5732 5731 5730 5729 5728 5728 5727 5727 5726 5726 5725 5724 5723 5723 5723 5722 5721 5719 5718 5718 5717 5715 5714 5713 5712 5711 5710 5709 5709 5708 5707 5708 5708 5708 5708 5707 5706 5706 5705 5705 5705 5704 5705 5704 5703 5703
5771 5770 5769 5769 5768 5767 5767 5766 5766 5765 5764 5763 5762 5762 5760 5759 5758 5757 5756 5754 5753 5752 5750 5750 5749 5748 5747 5746 5744 5743 5742 5741 5741 5740 5740 5739 5738 5736 5735 5734 5733 5731 5730 5730 5729 5727 5726 5726 5725 5725 5724 5724 5723 5723 5722 5722 5721 5720 5719 5718 5717 5716 5715 5714 5713 5712 5711 5709 5709 5709 5708 5707 5706 5706 5707 5707 5706 5705 5704 5703 5703 5702 5702 5702 5702 5701 5700 5700
5768 5767 5766 5766 5765 5765 5764 5763 5763 5762 5762 5761 5760 5759 5758 5757 5756 5755 5754 5753 5751 5750 5749 5748 5748 5746 5746 5745 5743 5742 5741 5740 5739 5738 5737 5737 5736 5735 5734 5732 5731 5730 5729 5728 5727 5726 5725 5724 5723 5723 5722 5722 5722 5721 5721 5720 5720 5719 5718 5717 5716 5715 5713 5712 5711 5710 5709 5708 5708 5707 5707 5706 5704 5704 5705 5705 5703 5703 5703 5702 5702 5701 5700 5700 5699 5698 5698 5697
5765 5764 5763 5762 5762 5762 5761 5761 5760 5759 5759 5759 5758 5757 5756 5755 5754 5753 5752 5751 5749 5748 5747 5747 5746 5745 5744 5743 5741 5741 5740 5739 5738 5736 5736 5735 5734 5734 5733 5731 5730 5729 5727 5726 5725 5724 5723 5722 5721 5721 5720 5720 5720 5719 5719 5718 5718 5717 5717 5715 5714 5713 5711 5710 5709 5708 5707 5706 5706 5706 5706 5705 5703 5702 5703 5703 5702 5702 5702 5701 5700 5700 5699 5698 5696 5694 5694 5695
5762 5761 5760 5759 5759 5758 5758 5758 5757 5756 5756 5756 5756 5755 5754 5753 5752 5751 5750 5749 5748 5747 5745 5744 5744 5743 5742 5741 5740 5739 5738 5737 5737 5735 5734 5733 5732 5732 5731 5730 5728 5727 5726 5725 5724 5723 5722 5721 5720 5719 5719 5718 5718 5717 5717 5716 5716 5715 5715 5714 5712 5710 5710 5709 5708 5707 5706 5705 5705 5705 5704 5703 5702 5701 5701 5701 5701 5701 5700 5699 5699 5698 5697 5697 5695 5692 5690 5692
5759 5758 5757 5756 5755 5755 5755 5755 5754 5754 5754 5754 5753 5752 5751 5751 5750 5750 5748 5746 5745 5745 5744 5743 5741 5741 5740 5739 5738 5737 5736 5735 5735 5734 5733 5732 5730 5730 5729 5728 5727 5726 5725 5724 5723 5721 5721 5720 5719 5718 5717 5717 5716 5716 5715 5714 5714 5714 5713 5713 5711 5709 5708 5707 5706 5705 5704 5704 5704 5704 5703 5701 5699 5699 5699 5699 5698 5699 5698 5698 5698 5697 5695 5695 5695 5691 5687 5689
5756 5755 5754 5753 5752 5752 5752 5752 5751 5751 5751 5751 5751 5750 5749 5748 5748 5747 5746 5744 5743 5743 5742 5741 5740 5738 5738 5737 5736 5735 5734 5733 5732 5731 5731 5730 5729 5728 5727 5726 5725 5724 5723 5723 5722 5720 5719 5718 5717 5716 5716 5715 5715 5714 5713 5713 5712 5712 5711 5710 5709 5708 5707 5706 5705 5704 5703 5703 5703 5703 5701 5699 5697 5697 5697 5697 5696 5696 5696 5696 5695 5695 5694 5692 5692 5691 5686 5686
5753 5752 5751 5751 5750 5749 5749 5748 5748 5748 5748 5748 5748 5747 5746 5746 5745 5744 5743 5742 5742 5742 5740 5739 5738 5736 5735 5734 5733 5733 5732 5731 5730 5729 5729 5728 5727 5726 5725 5724 5723 5723 5722 5721 5720 5719 5719 5717 5715 5715 5714 5714 5713 5713 5712 5711 5710 5710 5709 5708 5707 5707 5706 5705 5704 5703 5702 5702 5701 5702 5700 5697 5696 5696 5695 5695 5694 5694 5694 5693 5692 5692 5692 5690 5689 5688 5685 5684
5749 5749 5749 5747 5746 5746 5746 5745 5745 5745 5745 5745 5744 5744 5743 5743 5741 5741 5741 5739 5738 5739 5738 5736 5736 5735 5733 5731 5730 5729 5730 5729 5728 5727 5726 5726 5725 5724 5724 5722 5722 5721 5720 5719 5718 5718 5717 5715 5714 5713 5713 5712 5712 5711 5710 5710 5709 5708 5707 5706 5706 5705 5704 5703 5702 5701 5701 5700 5700 5700 5699 5696 5694 5694 5693 5693 5692 5691 5691 5691 5689 5689 5688 5687 5686 5684 5683 5682
5744 5745 5745 5745 5743 5743 5742 5742 5742 5741 5741 5741 5741 5741 5741 5739 5738 5738 5738 5737 5736 5736 5735 5733 5732 5733 5732 5729 5728 5727 5727 5727 5726 5725 5724 5723 5723 5722 5722 5721 5720 5719 5718 5717 5717 5716 5715 5714 5712 5712 5711 5710 5709 5709 5708 5708 5707 5707 5706 5705 5704 5703 5702 5701 5700 5700 5700 5699 5698 5698 5697 5694 5692 5692 5691 5690 5689 5689 5689 5688 5687 5686 5684 5683 5683 5682 5680 5679
5741 5740 5740 5741 5740 5739 5739 5739 5738 5738 5738 5738 5738 5737 5737 5736 5734 5734 5734 5734 5733 5733 5732 5731 5729 5730 5729 5728 5726 5725 5725 5724 5723 5723 5722 5721 5721 5721 5719 5718 5718 5718 5716 5716 5715 5714 5713 5712 5711 5711 5709 5708 5708 5707 5707 5706 5706 5705 5705 5704 5703 5702 5701 5700 5699 5698 5698 5697 5697 5696 5695 5692 5690 5690 5688 5687 5687 5687 5686 5685 5684 5683 5681 5679 5679 5678 5676 5675
5738 5737 5736 5737 5736 5735 5735 5735 5735 5735 5734 5735 5734 5733 5734 5732 5730 5731 5731 5730 5730 5730 5729 5728 5727 5727 5726 5725 5724 5724 5723 5722 5721 5720 5719 5719 5719 5718 5717 5716 5715 5715 5715 5714 5713 5712 5711 5710 5709 5708 5708 5707 5706 5705 5705 5705 5704 5704 5703 5702 5701 5701 5700 5699 5698 5697 5696 5695 5694 5694 5694 5691 5689 5689 5687 5685 5685 5684 5683 5682 5681 5680 5677 5676 5675 5674 5673 5672
5736 5734 5733 5734 5733 5732 5732 5731 5731 5731 5731 5731 5731 5730 5730 5729 5727 5728 5727 5726 5726 5726 5725 5725 5724 5724 5723 5722 5722 5721 5720 5720 5719 5718 5717 5716 5716 5715 5715 5714 5713 5713 5712 5711 5711 5710 5709 5708 5707 5706 5705 5705 5704 5703 5704 5703 5703 5702 5702 5701 5700 5699 5698 5697 5696 5695 5694 5693 5693 5692 5691 5689 5688 5687 5685 5684 5683 5682 5681 5680 5678 5676 5675 5673 5672 5670 5669 5668
5733 5732 5731 5731 5730 5729 5729 5728 5727 5727 5727 5727 5727 5727 5726 5725 5723 5723 5724 5723 5722 5723 5722 5721 5721 5720 5720 5719 5719 5718 5718 5717 5716 5715 5714 5714 5713 5713 5713 5712 5711 5710 5710 5709 5708 5708 5707 5705 5705 5705 5704 5703 5702 5702 5702 5702 5701 5701 5700 5699 5699 5698 5696 5695 5695 5694 5693 5692 5691 5689 5688 5686 5686 5685 5683 5682 5681 5679 5678 5677 5676 5674 5672 5670 5669 5667 5666 5665
5730 5729 5728 5728 5727 5726 5726 5725 5724 5724 5723 5723 5724 5723 5723 5722 5720 5719 5720 5720 5719 5719 5719 5718 5717 5717 5716 5716 5716 5716 5715 5715 5714 5713 5712 5711 5711 5710 5710 5710 5709 5708 5708 5707 5706 5706 5704 5703 5703 5703 5702 5701 5700 5699 5699 5699 5699 5699 5698 5698 5697 5696 5695 5694 5693 5692 5691 5690 5689 5687 5685 5684 5683 5682 5680 5679 5678 5676 5675 5674 5673 5671 5668 5667 5665 5664 5662 5660
5727 5726 5725 5724 5724 5723 5722 5722 5720 5720 5719 5719 5719 5719 5719 5719 5717 5716 5717 5716 5716 5715 5715 5714 5714 5714 5713 5713 5713 5712 5711 5711 5711 5710 5709 5709 5708 5707 5706 5707 5707 5705 5705 5705 5704 5704 5702 5701 5701 5700 5699 5699 5698 5698 5697 5697 5697 5696 5696 5695 5695 5694 5693 5692 5691 5689 5688 5688 5687 5685 5683 5682 5680 5679 5677 5676 5675 5673 5672 5671 5669 5667 5665 5662 5661 5660 5658 5656
5723 5722 5721 5720 5721 5719 5718 5718 5717 5716 5715 5715 5716 5715 5715 5715 5715 5714 5713 5713 5713 5712 5711 5711 5711 5711 5710 5710 5710 5709 5708 5708 5709 5708 5707 5706 5706 5705 5703 5704 5704 5703 5703 5703 5702 5701 5700 5699 5699 5698 5697 5697 5696 5696 5695 5694 5694 5694 5693 5693 5692 5692 5691 5689 5688 5687 5686 5686 5684 5682 5682 5680 5677 5676 5675 5673 5671 5670 5668 5667 5666 5664 5661 5659 5657 5655 5654 5651
5719 5718 5717 5716 5716 5716 5715 5714 5714 5713 5712 5712 5712 5712 5712 5712 5711 5711 5710 5710 5710 5709 5709 5708 5707 5707 5707 5706 5706 5706 5705 5705 5705 5705 5705 5703 5703 5702 5701 5701 5702 5701 5700 5700 5700 5699 5698 5697 5697 5696 5695 5695 5694 5694 5693 5691 5691 5691 5691 5690 5690 5689 5688 5687 5686 5685 5684 5683 5682 5680 5679 5679 5676 5674 5673 5670 5669 5668 5665 5663 5662 5660 5658 5655 5653 5651 5650 5647
5715 5714 5713 5712 5711 5711 5711 5710 5710 5710 5709 5709 5709 5709 5708 5708 5708 5708 5707 5707 5707 5706 5706 5705 5704 5704 5704 5703 5703 5703 5703 5702 5702 5702 5701 5700 5700 5699 5698 5698 5698 5698 5698 5697 5696 5696 5696 5695 5695 5694 5693 5693 5692 5691 5690 5689 5688 5689 5688 5688 5687 5686 5686 5684 5683 5683 5681 5680 5679 5678 5676 5676 5675 5672 5670 5668 5666 5665 5663 5660 5659 5657 5655 5652 5650 5648 5646 5644
5712 5710 5710 5709 5707 5706 5707 5706 5707 5707 5706 5706 5706 5705 5704 5704 5704 5704 5704 5704 5704 5703 5702 5702 5701 5701 5700 5700 5700 5700 5700 5700 5699 5699 5698 5697 5697 5697 5696 5695 5695 5694 5694 5694 5693 5693 5693 5692 5692 5692 5691 5691 5690 5689 5688 5687 5686 5686 5686 5685 5685 5684 5683 5682 5681 5681 5679 5677 5677 5677 5674 5673 5673 5671 5668 5665 5663 5662 5660 5658 5656 5654 5652 5650 5647 5645 5643 5641
5708 5706 5706 5706 5704 5703 5703 5703 5703 5703 5703 5703 5702 5701 5700 5700 5700 5700 5700 5700 5700 5700 5699 5699 5699 5698 5697 5697 5697 5697 5697 5696 5696 5696 5695 5694 5694 5694 5694 5693 5691 5691 5691 5690 5690 5690 5690 5689 5689 5689 5689 5689 5688 5687 5685 5684 5684 5683 5683 5683 5682 5681 5680 5679 5678 5678 5677 5674 5674 5674 5672 5670 5669 5667 5665 5663 5661 5659 5657 5655 5653 5651 5649 5647 5645 5642 5640 5638
5705 5704 5703 5703 5702 5701 5700 5700 5700 5701 5700 5699 5699 5698 5697 5697 5696 5696 5696 5696 5697 5696 5695 5695 5696 5695 5694 5694 5694 5694 5694 5693 5693 5693 5692 5691 5691 5691 5691 5690 5689 5688 5688 5688 5687 5687 5687 5687 5686 5686 5687 5686 5686 5685 5683 5682 5681 5681 5681 5680 5679 5678 5677 5676 5675 5675 5673 5672 5672 5671 5670 5669 5667 5664 5662 5660 5658 5656 5654 5652 5650 5648 5646 5643 5641 5640 5637 5634
5703 5702 5701 5700 5700 5699 5698 5698 5698 5698 5697 5697 5696 5695 5694 5693 5693 5692 5692 5692 5693 5693 5692 5691 5692 5692 5692 5691 5691 5691 5691 5690 5690 5690 5689 5688 5689 5688 5688 5688 5686 5685 5685 5685 5685 5685 5684 5684 5683 5683 5684 5684 5683 5682 5681 5679 5678 5678 5678 5677 5676 5675 5674 5673 5673 5672 5671 5670 5669 5668 5667 5667 5664 5660 5659 5657 5655 5653 5651 5649 5647 5645 5643 5640 5638 5636 5633 5631
5701 5700 5700 5699 5698 5697 5697 5696 5696 5695 5695 5694 5693 5692 5691 5690 5689 5689 5689 5689 5689 5689 5688 5688 5688 5689 5689 5689 5688 5688 5688 5687 5688 5688 5686 5686 5686 5685 5685 5685 5684 5683 5682 5682 5682 5682 5681 5681 5681 5680 5681 5681 5680 5678 5678 5677 5676 5676 5675 5674 5673 5672 5672 5671 5670 5669 5668 5667 5666 5665 5664 5663 5660 5658 5656 5655 5652 5650 5648 5646 5644 5642 5640 5637 5635 5633 5630 5627
5700 5699 5697 5697 5697 5696 5695 5694 5693 5692 5692 5691 5690 5689 5688 5687 5686 5685 5685 5685 5686 5685 5685 5685 5685 5685 5686 5686 5685 5685 5685 5685 5685 5685 5684 5683 5683 5683 5682 5682 5682 5681 5680 5680 5680 5680 5679 5678 5678 5677 5677 5678 5677 5675 5674 5674 5673 5674 5673 5671 5670 5669 5668 5668 5667 5667 5665 5664 5663 5662 5661 5660 5657 5655 5654 5652 5650 5648 5645 5642 5641 5639 5637 5634 5632 5630 5627 5625